#�ϑ�����,���ϕ���,���ϕ���,�ő啗��,�ő啗����������,�ő�u�ԕ���,�ő�u�ԕ�����������
#(�N����),(m/s)   ,(16����),(m/s)   ,(16����)        ,(m/s)       ,(16����)            
2015/9/1 0:01,1.4,10,1.4,10,2.6,11
2015/9/1 0:02,1.5,10,1.5,10,2.1,11
2015/9/1 0:03,1.7,11,1.7,11,1.9,12
2015/9/1 0:04,1.7,11,1.7,11,2,12
2015/9/1 0:05,1.6,11,1.7,11,1.8,13
2015/9/1 0:06,1.6,11,1.6,11,2.1,12
2015/9/1 0:07,1.7,12,1.7,11,2,12
2015/9/1 0:08,1.6,12,1.7,11,2.1,13
2015/9/1 0:09,1.6,12,1.6,11,2,12
2015/9/1 0:10,1.5,12,1.6,11,1.8,11
2015/9/1 0:11,1.4,12,1.4,11,1.8,13
2015/9/1 0:12,1.4,12,1.4,11,2.1,12
2015/9/1 0:13,1.4,12,1.4,11,1.9,11
2015/9/1 0:14,1.4,12,1.4,11,1.9,12
2015/9/1 0:15,1.3,12,1.4,11,1.3,12
2015/9/1 0:16,1.2,12,1.3,11,1.3,10
2015/9/1 0:17,1.1,12,1.2,12,1.4,10
2015/9/1 0:18,1.1,11,1.1,12,1.5,12
2015/9/1 0:19,1,12,1.1,12,1.3,12
2015/9/1 0:20,1,12,1,12,1.4,13
2015/9/1 0:21,1,12,1,12,1.8,14
2015/9/1 0:22,1,12,1,12,1.9,14
2015/9/1 0:23,0.9,12,0.9,12,1.4,12
2015/9/1 0:24,0.8,12,0.9,12,1.3,10
2015/9/1 0:25,0.8,12,0.8,12,0.9,8
2015/9/1 0:26,0.8,12,0.8,12,0.9,8
2015/9/1 0:27,0.9,12,0.9,12,1.4,13
2015/9/1 0:28,0.9,12,0.9,11,1.4,15
2015/9/1 0:29,0.9,13,0.9,12,1.8,15
2015/9/1 0:30,0.9,13,1,12,2.2,16
2015/9/1 0:31,0.9,13,1,12,1.8,15
2015/9/1 0:32,0.8,14,0.9,13,0.5,1
2015/9/1 0:33,0.7,15,0.8,13,0.3,1
2015/9/1 0:34,0.7,15,0.7,13,0.5,4
2015/9/1 0:35,0.6,15,0.7,13,0.1,14
2015/9/1 0:36,0.6,16,0.6,13,0.1,1
2015/9/1 0:37,0.5,1,0.6,13,0.1,2
2015/9/1 0:38,0.4,1,0.5,13,0.1,3
2015/9/1 0:39,0.3,2,0.4,13,0.1,4
2015/9/1 0:40,0.1,2,0.3,13,0.1,9
2015/9/1 0:41,0,3,0.1,13,0.1,6
2015/9/1 0:42,0,3,0,14,0.1,4
2015/9/1 0:43,0,3,0,15,0.1,2
2015/9/1 0:44,0,3,0,15,0.5,1
2015/9/1 0:45,0,3,0,15,0.5,1
2015/9/1 0:46,0,3,0,16,0.1,1
2015/9/1 0:47,0,3,0,1,0,1
2015/9/1 0:48,0,2,0,1,0.1,2
2015/9/1 0:49,0,2,0,2,0.1,3
2015/9/1 0:50,0,2,0,3,0,2
2015/9/1 0:51,0,1,0,3,0,16
2015/9/1 0:52,0,1,0,3,0.1,14
2015/9/1 0:53,0.1,1,0.1,1,0.9,9
2015/9/1 0:54,0.1,1,0.1,1,0.8,10
2015/9/1 0:55,0.1,16,0.1,1,1.4,10
2015/9/1 0:56,0.2,14,0.2,16,1.5,11
2015/9/1 0:57,0.4,12,0.4,12,1.5,11
2015/9/1 0:58,0.4,11,0.4,12,1.4,11
2015/9/1 0:59,0.5,11,0.5,11,1.3,9
2015/9/1 1:00,0.5,11,0.5,11,0.8,13
2015/9/1 1:01,0.6,11,0.6,11,1.9,12
2015/9/1 1:02,0.8,11,0.8,11,2.6,10
2015/9/1 1:03,1,11,1,11,2.9,11
2015/9/1 1:04,1.2,11,1.2,11,3,11
2015/9/1 1:05,1.4,11,1.4,11,3.2,11
2015/9/1 1:06,1.4,11,1.4,11,2.2,12
2015/9/1 1:07,1.4,12,1.4,11,1.4,13
2015/9/1 1:08,1.3,12,1.3,11,0.3,16
2015/9/1 1:09,1.2,12,1.3,11,0.1,13
2015/9/1 1:10,1.2,12,1.2,11,0.3,8
2015/9/1 1:11,1.2,13,1.2,11,1.3,16
2015/9/1 1:12,1.1,13,1.2,11,1.3,15
2015/9/1 1:13,0.9,14,1.1,11,1.6,16
2015/9/1 1:14,0.8,15,0.9,11,1.5,15
2015/9/1 1:15,0.6,15,0.8,11,1.3,14
2015/9/1 1:16,0.5,16,0.6,11,1.6,1
2015/9/1 1:17,0.6,16,0.6,12,1.3,1
2015/9/1 1:18,0.7,16,0.7,12,1.3,16
2015/9/1 1:19,0.8,16,0.8,12,1.5,16
2015/9/1 1:20,0.9,16,0.9,12,1.4,16
2015/9/1 1:21,0.9,16,0.9,13,0.8,16
2015/9/1 1:22,0.9,16,0.9,13,1,16
2015/9/1 1:23,0.8,16,0.9,14,1,1
2015/9/1 1:24,0.8,16,0.8,16,1.8,15
2015/9/1 1:25,0.9,16,0.9,16,2.1,16
2015/9/1 1:26,1,16,1,16,2.7,16
2015/9/1 1:27,1.1,16,1.1,16,3,16
2015/9/1 1:28,1.2,16,1.2,16,2.4,16
2015/9/1 1:29,1.2,16,1.2,16,1.6,16
2015/9/1 1:30,1.2,16,1.2,16,2.1,16
2015/9/1 1:31,1.2,16,1.2,16,0.3,4
2015/9/1 1:32,1.1,16,1.2,16,0.8,8
2015/9/1 1:33,1.1,16,1.1,16,1.1,8
2015/9/1 1:34,1,1,1.1,16,0.9,6
2015/9/1 1:35,0.9,1,1,16,1,3
2015/9/1 1:36,0.7,2,0.9,16,0.1,1
2015/9/1 1:37,0.5,2,0.7,16,0.5,1
2015/9/1 1:38,0.4,2,0.5,16,1.1,15
2015/9/1 1:39,0.4,2,0.4,16,1.6,1
2015/9/1 1:40,0.3,2,0.4,16,1,16
2015/9/1 1:41,0.5,2,0.5,16,1.9,16
2015/9/1 1:42,0.6,1,0.6,16,2.2,15
2015/9/1 1:43,0.7,1,0.7,16,1.9,1
2015/9/1 1:44,0.9,16,0.9,1,2.6,16
2015/9/1 1:45,1,16,1,16,2.5,16
2015/9/1 1:46,1.1,16,1.1,16,2.5,16
2015/9/1 1:47,1.2,16,1.2,16,1.5,15
2015/9/1 1:48,1.2,16,1.2,16,1,15
2015/9/1 1:49,1.2,16,1.2,16,1.1,2
2015/9/1 1:50,1.2,16,1.2,16,1.1,16
2015/9/1 1:51,1.1,16,1.2,16,0.1,2
2015/9/1 1:52,1,16,1.1,16,1,6
2015/9/1 1:53,0.9,1,1,16,1,4
2015/9/1 1:54,0.8,1,0.9,16,1.5,1
2015/9/1 1:55,0.7,1,0.8,16,1.4,1
2015/9/1 1:56,0.6,1,0.7,16,0.8,1
2015/9/1 1:57,0.6,1,0.6,16,0.9,16
2015/9/1 1:58,0.6,1,0.6,16,1.3,16
2015/9/1 1:59,0.7,1,0.7,16,2.4,16
2015/9/1 2:00,0.8,1,0.8,16,2.2,16
2015/9/1 2:01,0.9,1,0.9,16,1.5,1
2015/9/1 2:02,0.9,1,0.9,1,0.9,16
2015/9/1 2:03,0.9,1,0.9,1,1.5,1
2015/9/1 2:04,0.9,1,0.9,1,1.3,16
2015/9/1 2:05,0.9,16,0.9,1,1.1,15
2015/9/1 2:06,0.8,16,0.9,1,0.3,11
2015/9/1 2:07,0.8,16,0.8,1,0.6,6
2015/9/1 2:08,0.8,1,0.8,1,1.5,8
2015/9/1 2:09,0.7,1,0.8,1,1,8
2015/9/1 2:10,0.5,2,0.7,1,1,7
2015/9/1 2:11,0.5,3,0.5,1,0.1,8
2015/9/1 2:12,0.4,1,0.5,1,0.3,15
2015/9/1 2:13,0.3,11,0.4,1,0,16
2015/9/1 2:14,0.3,10,0.3,1,0.1,12
2015/9/1 2:15,0.2,10,0.2,16,0.1,12
2015/9/1 2:16,0.2,11,0.2,16,0.3,13
2015/9/1 2:17,0.2,11,0.2,16,0.1,13
2015/9/1 2:18,0.1,12,0.2,1,0.1,13
2015/9/1 2:19,0,12,0.1,1,0.1,12
2015/9/1 2:20,0,13,0,2,0.1,13
2015/9/1 2:21,0,13,0,3,0.1,13
2015/9/1 2:22,0,12,0,16,0.1,10
2015/9/1 2:23,0,12,0,11,0.8,16
2015/9/1 2:24,0.1,13,0.1,10,1.1,16
2015/9/1 2:25,0.1,13,0.1,10,0.1,1
2015/9/1 2:26,0.1,13,0.1,11,0.1,3
2015/9/1 2:27,0.1,14,0.1,11,1.1,16
2015/9/1 2:28,0.2,15,0.2,14,1.1,16
2015/9/1 2:29,0.2,15,0.2,14,0.3,15
2015/9/1 2:30,0.2,16,0.2,14,1,16
2015/9/1 2:31,0.3,16,0.3,16,1.6,16
2015/9/1 2:32,0.5,16,0.5,16,1.8,16
2015/9/1 2:33,0.5,1,0.5,16,1.8,16
2015/9/1 2:34,0.5,1,0.5,16,0.9,1
2015/9/1 2:35,0.6,16,0.6,1,1.8,16
2015/9/1 2:36,0.8,16,0.8,16,1.9,16
2015/9/1 2:37,0.9,16,0.9,16,2.1,16
2015/9/1 2:38,1,16,1,16,2.2,1
2015/9/1 2:39,1.1,16,1.1,16,1.5,16
2015/9/1 2:40,1.1,16,1.1,16,1.5,2
2015/9/1 2:41,1.1,1,1.1,16,1.8,3
2015/9/1 2:42,1.1,1,1.1,16,1.8,2
2015/9/1 2:43,1.1,1,1.1,16,1.9,1
2015/9/1 2:44,1.2,1,1.2,1,1.9,1
2015/9/1 2:45,1.2,1,1.2,1,1.8,2
2015/9/1 2:46,1.2,1,1.2,1,2.2,1
2015/9/1 2:47,1.2,1,1.2,1,2.4,1
2015/9/1 2:48,1.2,1,1.2,1,2.6,1
2015/9/1 2:49,1.3,2,1.3,2,1.9,2
2015/9/1 2:50,1.3,2,1.3,2,2.1,1
2015/9/1 2:51,1.2,1,1.3,2,1.1,1
2015/9/1 2:52,1.3,1,1.3,2,2.6,1
2015/9/1 2:53,1.3,1,1.3,2,2.1,1
2015/9/1 2:54,1.3,1,1.3,2,2.1,1
2015/9/1 2:55,1.3,1,1.3,2,2.4,1
2015/9/1 2:56,1.4,1,1.4,1,3.1,2
2015/9/1 2:57,1.4,1,1.4,1,2.5,3
2015/9/1 2:58,1.4,1,1.4,1,2.5,1
2015/9/1 2:59,1.3,1,1.4,1,2.6,5
2015/9/1 3:00,1.4,1,1.4,1,2.6,5
2015/9/1 3:01,1.5,2,1.5,1,2.2,2
2015/9/1 3:02,1.4,2,1.5,1,1.5,3
2015/9/1 3:03,1.3,2,1.4,1,0.5,1
2015/9/1 3:04,1.2,2,1.3,1,0.5,1
2015/9/1 3:05,1.1,2,1.2,1,0.5,2
2015/9/1 3:06,0.9,2,1.1,1,1,5
2015/9/1 3:07,0.9,3,0.9,1,1.3,5
2015/9/1 3:08,0.8,3,0.9,1,1.6,5
2015/9/1 3:09,0.7,4,0.8,1,0.3,7
2015/9/1 3:10,0.6,4,0.7,1,1.3,5
2015/9/1 3:11,0.6,4,0.6,2,1.9,4
2015/9/1 3:12,0.8,4,0.8,2,2.7,3
2015/9/1 3:13,1,4,1,2,2.4,4
2015/9/1 3:14,1.1,4,1.1,2,2.1,3
2015/9/1 3:15,1.2,4,1.2,4,1.8,3
2015/9/1 3:16,1.2,4,1.2,4,1.3,5
2015/9/1 3:17,1.2,4,1.2,4,1.6,3
2015/9/1 3:18,1.3,4,1.3,4,2.1,3
2015/9/1 3:19,1.4,4,1.4,4,2,3
2015/9/1 3:20,1.4,3,1.5,3,1.8,4
2015/9/1 3:21,1.5,3,1.5,3,2,3
2015/9/1 3:22,1.4,3,1.5,3,2.4,3
2015/9/1 3:23,1.2,3,1.4,3,1,2
2015/9/1 3:24,1.2,3,1.2,3,1.5,2
2015/9/1 3:25,1.1,3,1.2,3,1.8,4
2015/9/1 3:26,1.2,2,1.2,3,1.9,3
2015/9/1 3:27,1.3,2,1.3,3,2.6,4
2015/9/1 3:28,1.3,2,1.3,3,2.9,3
2015/9/1 3:29,1.3,3,1.3,3,2.5,4
2015/9/1 3:30,1.4,3,1.4,3,2.2,3
2015/9/1 3:31,1.3,3,1.4,3,2,3
2015/9/1 3:32,1.2,3,1.3,3,0.9,1
2015/9/1 3:33,1.1,3,1.2,3,1,5
2015/9/1 3:34,1.2,3,1.2,3,2.7,5
2015/9/1 3:35,1.3,3,1.3,3,3,4
2015/9/1 3:36,1.3,4,1.3,3,1.8,7
2015/9/1 3:37,1.3,4,1.3,3,2.4,5
2015/9/1 3:38,1.3,4,1.3,3,2.4,6
2015/9/1 3:39,1.3,4,1.3,3,3,4
2015/9/1 3:40,1.4,5,1.4,3,3.1,5
2015/9/1 3:41,1.4,5,1.4,5,1.8,6
2015/9/1 3:42,1.6,5,1.6,5,3.2,5
2015/9/1 3:43,1.8,5,1.8,5,3.2,5
2015/9/1 3:44,1.8,5,1.8,5,3,6
2015/9/1 3:45,1.8,5,1.8,5,2.9,4
2015/9/1 3:46,1.9,5,1.9,5,2.7,4
2015/9/1 3:47,1.9,5,1.9,5,2,6
2015/9/1 3:48,1.9,5,1.9,5,2.5,2
2015/9/1 3:49,1.9,5,1.9,5,2.6,4
2015/9/1 3:50,1.8,5,1.9,5,2.7,6
2015/9/1 3:51,1.9,5,1.9,5,2.7,6
2015/9/1 3:52,1.8,5,1.9,5,2.2,5
2015/9/1 3:53,1.8,5,1.8,5,2.4,6
2015/9/1 3:54,1.8,5,1.8,5,2.9,5
2015/9/1 3:55,1.7,5,1.8,5,2.2,6
2015/9/1 3:56,1.6,5,1.7,5,2.1,4
2015/9/1 3:57,1.6,5,1.6,5,1.8,5
2015/9/1 3:58,1.5,5,1.6,5,1.4,2
2015/9/1 3:59,1.4,5,1.5,5,1.1,3
2015/9/1 4:00,1.3,4,1.4,5,1.4,2
2015/9/1 4:01,1.2,4,1.3,5,1.3,4
2015/9/1 4:02,1.1,4,1.2,5,1.3,3
2015/9/1 4:03,1,3,1.1,5,1.6,3
2015/9/1 4:04,0.9,3,1,5,0.9,3
2015/9/1 4:05,0.8,3,0.9,5,1.4,3
2015/9/1 4:06,0.8,3,0.8,5,1.6,1
2015/9/1 4:07,0.8,2,0.8,5,2,16
2015/9/1 4:08,0.9,2,0.9,5,2.1,2
2015/9/1 4:09,1,2,1,5,2.7,2
2015/9/1 4:10,1.1,2,1.1,4,2.5,2
2015/9/1 4:11,1.2,2,1.2,4,2.4,1
2015/9/1 4:12,1.2,2,1.2,2,2.4,3
2015/9/1 4:13,1.3,2,1.3,2,2,3
2015/9/1 4:14,1.3,2,1.3,2,1.8,2
2015/9/1 4:15,1.4,2,1.4,2,2.4,3
2015/9/1 4:16,1.5,2,1.5,2,3.2,2
2015/9/1 4:17,1.5,2,1.5,2,1.9,1
2015/9/1 4:18,1.5,2,1.5,2,2.5,15
2015/9/1 4:19,1.5,2,1.5,2,3.6,3
2015/9/1 4:20,1.5,2,1.5,2,3.7,3
2015/9/1 4:21,1.7,2,1.7,2,3.7,3
2015/9/1 4:22,1.7,2,1.7,2,3,1
2015/9/1 4:23,1.7,2,1.7,2,1.8,1
2015/9/1 4:24,1.7,2,1.7,2,2.9,3
2015/9/1 4:25,1.8,2,1.8,2,2.6,2
2015/9/1 4:26,1.7,2,1.8,2,2.4,1
2015/9/1 4:27,1.7,2,1.7,2,2.2,2
2015/9/1 4:28,1.8,2,1.8,2,2.7,3
2015/9/1 4:29,1.7,2,1.8,2,2.4,3
2015/9/1 4:30,1.8,2,1.8,2,3.5,3
2015/9/1 4:31,1.6,2,1.8,2,2.2,1
2015/9/1 4:32,1.6,2,1.6,2,2.5,1
2015/9/1 4:33,1.6,2,1.6,2,2.5,2
2015/9/1 4:34,1.5,2,1.6,2,2.1,1
2015/9/1 4:35,1.5,2,1.5,2,2.2,4
2015/9/1 4:36,1.5,2,1.5,2,2.6,3
2015/9/1 4:37,1.5,2,1.5,2,2.6,1
2015/9/1 4:38,1.5,2,1.5,2,2.5,2
2015/9/1 4:39,1.5,2,1.5,2,2.6,2
2015/9/1 4:40,1.4,2,1.5,2,2.1,2
2015/9/1 4:41,1.4,2,1.4,2,2.2,1
2015/9/1 4:42,1.4,2,1.5,2,2.7,2
2015/9/1 4:43,1.6,2,1.6,2,3.3,2
2015/9/1 4:44,1.6,2,1.6,2,2.9,1
2015/9/1 4:45,1.7,2,1.7,2,2.9,1
2015/9/1 4:46,1.7,1,1.7,2,2.4,2
2015/9/1 4:47,1.6,1,1.7,2,1.9,1
2015/9/1 4:48,1.5,1,1.6,2,3.5,2
2015/9/1 4:49,1.5,1,1.5,2,2,2
2015/9/1 4:50,1.6,1,1.6,2,2.7,4
2015/9/1 4:51,1.5,2,1.6,2,1.3,2
2015/9/1 4:52,1.5,2,1.5,2,1.8,2
2015/9/1 4:53,1.3,1,1.5,2,1.1,2
2015/9/1 4:54,1.1,1,1.3,2,1.1,16
2015/9/1 4:55,1,1,1.1,2,1.5,1
2015/9/1 4:56,1,1,1,1,1.1,1
2015/9/1 4:57,1,1,1,1,1.1,1
2015/9/1 4:58,0.9,1,1,1,1.1,15
2015/9/1 4:59,0.9,1,0.9,1,1.6,1
2015/9/1 5:00,0.8,1,0.9,1,1.8,2
2015/9/1 5:01,0.9,1,0.9,2,1.8,1
2015/9/1 5:02,0.8,1,0.8,2,1.1,1
2015/9/1 5:03,0.8,1,0.8,1,1.3,3
2015/9/1 5:04,0.9,1,0.9,1,1.8,1
2015/9/1 5:05,0.9,1,0.9,1,1.8,1
2015/9/1 5:06,1,1,1,1,2.4,2
2015/9/1 5:07,1.1,1,1.1,1,2.6,2
2015/9/1 5:08,1.1,2,1.1,1,1.8,3
2015/9/1 5:09,1.1,2,1.1,1,1.8,2
2015/9/1 5:10,1.1,2,1.1,1,2.4,4
2015/9/1 5:11,1.1,2,1.1,1,1.5,2
2015/9/1 5:12,1.1,2,1.1,1,1.8,2
2015/9/1 5:13,1.1,2,1.1,1,1.4,16
2015/9/1 5:14,1.1,2,1.1,1,1.8,2
2015/9/1 5:15,1.1,2,1.1,1,2.1,3
2015/9/1 5:16,1.1,2,1.2,2,1.5,3
2015/9/1 5:17,1,2,1.1,2,1.4,1
2015/9/1 5:18,1,2,1,2,1.4,2
2015/9/1 5:19,1,2,1,2,2,2
2015/9/1 5:20,1,2,1,2,2,3
2015/9/1 5:21,1.1,2,1.1,2,2.2,3
2015/9/1 5:22,1.2,2,1.2,2,2.2,2
2015/9/1 5:23,1.3,2,1.3,2,2,3
2015/9/1 5:24,1.3,2,1.3,2,2.5,2
2015/9/1 5:25,1.3,2,1.3,2,2.4,4
2015/9/1 5:26,1.4,2,1.4,2,2.4,4
2015/9/1 5:27,1.5,3,1.5,3,2.1,2
2015/9/1 5:28,1.5,3,1.5,3,1.8,2
2015/9/1 5:29,1.5,3,1.5,3,2.2,3
2015/9/1 5:30,1.6,3,1.6,3,3.2,2
2015/9/1 5:31,1.6,2,1.6,3,3.3,3
2015/9/1 5:32,1.6,2,1.6,3,2.5,3
2015/9/1 5:33,1.7,2,1.7,2,2.4,2
2015/9/1 5:34,1.7,2,1.7,2,2.4,2
2015/9/1 5:35,1.6,2,1.7,2,2.2,2
2015/9/1 5:36,1.6,2,1.6,2,2.4,3
2015/9/1 5:37,1.7,2,1.7,2,3.2,3
2015/9/1 5:38,1.9,2,1.9,2,2.9,3
2015/9/1 5:39,1.9,3,1.9,2,2.6,3
2015/9/1 5:40,1.9,3,1.9,2,2.7,2
2015/9/1 5:41,1.9,3,1.9,2,2.9,4
2015/9/1 5:42,1.9,3,1.9,2,2.2,4
2015/9/1 5:43,1.8,3,1.9,2,1.5,3
2015/9/1 5:44,1.8,3,1.8,2,1.9,2
2015/9/1 5:45,1.8,3,1.8,2,2,2
2015/9/1 5:46,1.7,3,1.7,2,2.4,1
2015/9/1 5:47,1.7,3,1.7,2,2.4,3
2015/9/1 5:48,1.6,3,1.7,2,2.6,4
2015/9/1 5:49,1.7,3,1.7,3,2.7,3
2015/9/1 5:50,1.6,3,1.7,3,2.1,3
2015/9/1 5:51,1.7,3,1.7,3,3.3,3
2015/9/1 5:52,1.7,2,1.7,3,3,2
2015/9/1 5:53,1.9,3,1.9,2,3.9,3
2015/9/1 5:54,2.1,3,2.1,3,3.6,3
2015/9/1 5:55,2.2,3,2.2,3,3.7,3
2015/9/1 5:56,2.3,3,2.3,3,3.5,3
2015/9/1 5:57,2.4,3,2.4,3,3.5,2
2015/9/1 5:58,2.5,3,2.5,3,4.7,3
2015/9/1 5:59,2.6,3,2.6,3,4.3,3
2015/9/1 6:00,2.8,3,2.8,3,4.5,2
2015/9/1 6:01,2.8,3,2.8,3,3.9,2
2015/9/1 6:02,2.9,3,2.9,3,4.7,3
2015/9/1 6:03,2.9,3,2.9,3,4.3,3
2015/9/1 6:04,2.9,2,2.9,3,4.3,3
2015/9/1 6:05,2.8,2,2.9,3,3.8,2
2015/9/1 6:06,2.7,2,2.8,3,3.7,2
2015/9/1 6:07,2.6,2,2.7,3,1.5,16
2015/9/1 6:08,2.4,2,2.6,3,2.2,3
2015/9/1 6:09,2.3,2,2.4,3,3.7,3
2015/9/1 6:10,2.2,2,2.3,3,3.8,2
2015/9/1 6:11,2.1,2,2.2,3,3.2,2
2015/9/1 6:12,1.9,2,2.1,3,1.8,1
2015/9/1 6:13,1.7,2,1.9,3,2,1
2015/9/1 6:14,1.6,2,1.7,2,2.2,3
2015/9/1 6:15,1.5,2,1.5,2,2.1,2
2015/9/1 6:16,1.5,2,1.5,2,2.2,2
2015/9/1 6:17,1.5,2,1.5,2,1.9,3
2015/9/1 6:18,1.5,2,1.5,2,1.4,3
2015/9/1 6:19,1.4,2,1.5,2,1.3,1
2015/9/1 6:20,1.2,2,1.3,2,1,1
2015/9/1 6:21,1,2,1.2,2,1,1
2015/9/1 6:22,1,2,1,2,1.3,3
2015/9/1 6:23,1,2,1,2,1,16
2015/9/1 6:24,0.9,2,1,2,0.8,1
2015/9/1 6:25,0.8,2,0.9,2,0.9,1
2015/9/1 6:26,0.7,2,0.8,2,0.9,3
2015/9/1 6:27,0.7,1,0.7,2,0.8,1
2015/9/1 6:28,0.6,1,0.7,2,1,3
2015/9/1 6:29,0.6,2,0.6,2,1.3,1
2015/9/1 6:30,0.6,2,0.6,2,1.4,2
2015/9/1 6:31,0.7,2,0.7,2,2.2,3
2015/9/1 6:32,0.8,2,0.8,2,2.2,2
2015/9/1 6:33,0.8,2,0.8,2,1.6,2
2015/9/1 6:34,0.9,2,0.9,2,1.9,2
2015/9/1 6:35,1,2,1,2,1.5,3
2015/9/1 6:36,1,2,1,2,1.8,3
2015/9/1 6:37,1,2,1,2,1.4,3
2015/9/1 6:38,1,2,1,2,1.3,2
2015/9/1 6:39,1.1,2,1.1,2,1.3,4
2015/9/1 6:40,1.1,2,1.1,2,1.5,3
2015/9/1 6:41,1,2,1.1,2,1.5,2
2015/9/1 6:42,1,2,1,2,1.4,3
2015/9/1 6:43,1,2,1,2,1.6,16
2015/9/1 6:44,0.9,2,1,2,1.4,1
2015/9/1 6:45,0.8,2,0.9,2,0.9,1
2015/9/1 6:46,0.8,2,0.8,2,1.4,2
2015/9/1 6:47,0.8,2,0.9,2,1.8,4
2015/9/1 6:48,0.9,2,0.9,2,1.1,2
2015/9/1 6:49,0.9,2,0.9,2,1.6,3
2015/9/1 6:50,0.9,2,0.9,2,1.4,3
2015/9/1 6:51,0.9,2,0.9,2,1.8,3
2015/9/1 6:52,0.9,2,0.9,2,2,3
2015/9/1 6:53,1,2,1,2,2,3
2015/9/1 6:54,1,3,1,2,1.9,3
2015/9/1 6:55,1.1,3,1.1,2,2.4,4
2015/9/1 6:56,1.2,3,1.2,3,2.5,3
2015/9/1 6:57,1.2,2,1.2,3,2.6,3
2015/9/1 6:58,1.3,2,1.3,2,2.4,2
2015/9/1 6:59,1.4,2,1.4,2,2.6,4
2015/9/1 7:00,1.5,2,1.5,2,2.6,3
2015/9/1 7:01,1.5,2,1.5,2,2.2,1
2015/9/1 7:02,1.5,2,1.5,2,2.4,2
2015/9/1 7:03,1.6,2,1.6,2,3.2,2
2015/9/1 7:04,1.6,2,1.6,2,2.6,2
2015/9/1 7:05,1.6,2,1.6,2,2.6,2
2015/9/1 7:06,1.6,2,1.6,2,2.6,2
2015/9/1 7:07,1.6,2,1.6,2,2.6,1
2015/9/1 7:08,1.6,2,1.6,2,2.5,2
2015/9/1 7:09,1.5,2,1.5,2,1,16
2015/9/1 7:10,1.4,2,1.4,2,2.2,2
2015/9/1 7:11,1.4,2,1.4,2,3,3
2015/9/1 7:12,1.5,2,1.5,2,2.2,2
2015/9/1 7:13,1.4,2,1.5,2,2.1,2
2015/9/1 7:14,1.4,2,1.4,2,2,2
2015/9/1 7:15,1.3,2,1.4,2,2.2,3
2015/9/1 7:16,1.3,2,1.3,2,2.6,2
2015/9/1 7:17,1.3,2,1.3,2,3.2,3
2015/9/1 7:18,1.4,2,1.4,2,3.2,3
2015/9/1 7:19,1.4,2,1.4,2,2.1,2
2015/9/1 7:20,1.5,2,1.5,2,2.9,2
2015/9/1 7:21,1.4,2,1.5,2,3,1
2015/9/1 7:22,1.4,2,1.5,2,2.7,2
2015/9/1 7:23,1.4,2,1.4,2,1.9,2
2015/9/1 7:24,1.4,2,1.4,2,1.6,3
2015/9/1 7:25,1.4,2,1.4,2,2,3
2015/9/1 7:26,1.4,2,1.4,2,2,2
2015/9/1 7:27,1.4,2,1.4,2,1.6,2
2015/9/1 7:28,1.3,2,1.4,2,1.4,1
2015/9/1 7:29,1.3,2,1.3,2,2,2
2015/9/1 7:30,1.2,2,1.3,2,2,2
2015/9/1 7:31,1.1,2,1.2,2,1.6,2
2015/9/1 7:32,1.1,2,1.1,2,2.2,2
2015/9/1 7:33,1.1,2,1.1,2,2.1,2
2015/9/1 7:34,1.2,2,1.2,2,2.4,3
2015/9/1 7:35,1.2,2,1.2,2,1.8,2
2015/9/1 7:36,1.3,2,1.3,2,3,3
2015/9/1 7:37,1.5,2,1.5,2,4.1,3
2015/9/1 7:38,1.7,2,1.7,2,3.8,3
2015/9/1 7:39,1.7,2,1.7,2,2.4,2
2015/9/1 7:40,1.8,2,1.8,2,2.2,2
2015/9/1 7:41,1.9,2,1.9,2,2.9,3
2015/9/1 7:42,1.9,3,1.9,2,2.5,3
2015/9/1 7:43,1.9,3,1.9,2,2.2,3
2015/9/1 7:44,2,3,2,3,2.2,3
2015/9/1 7:45,2,3,2,3,2.4,3
2015/9/1 7:46,1.9,3,2,3,2,2
2015/9/1 7:47,1.7,2,1.9,3,1.8,3
2015/9/1 7:48,1.6,2,1.7,3,2.1,2
2015/9/1 7:49,1.6,2,1.6,3,2.7,2
2015/9/1 7:50,1.6,2,1.6,3,3.7,3
2015/9/1 7:51,1.6,3,1.6,3,3.1,3
2015/9/1 7:52,1.6,3,1.6,3,1.9,3
2015/9/1 7:53,1.6,3,1.6,3,1.8,4
2015/9/1 7:54,1.6,3,1.6,3,2.2,3
2015/9/1 7:55,1.6,3,1.6,3,3,4
2015/9/1 7:56,1.7,3,1.7,3,3.2,4
2015/9/1 7:57,1.8,3,1.8,3,2.9,3
2015/9/1 7:58,1.9,3,1.9,3,3.2,1
2015/9/1 7:59,1.9,3,1.9,3,3.3,3
2015/9/1 8:00,1.8,3,1.9,3,2.5,4
2015/9/1 8:01,1.8,3,1.8,3,2.1,2
2015/9/1 8:02,1.8,3,1.8,3,2.9,3
2015/9/1 8:03,1.9,3,1.9,3,3.5,3
2015/9/1 8:04,1.9,3,2,3,3.2,3
2015/9/1 8:05,1.9,3,1.9,3,1.8,2
2015/9/1 8:06,1.8,3,1.8,3,3.2,3
2015/9/1 8:07,1.8,3,1.8,3,2.5,4
2015/9/1 8:08,1.7,3,1.8,3,2.1,4
2015/9/1 8:09,1.7,3,1.7,3,2.6,3
2015/9/1 8:10,1.7,3,1.7,3,2,4
2015/9/1 8:11,1.7,3,1.7,3,2.6,4
2015/9/1 8:12,1.7,3,1.7,3,2.2,4
2015/9/1 8:13,1.6,3,1.7,3,3.1,2
2015/9/1 8:14,1.7,3,1.7,3,3.2,3
2015/9/1 8:15,1.9,3,1.9,3,3,3
2015/9/1 8:16,1.9,3,1.9,3,3.2,3
2015/9/1 8:17,1.9,3,1.9,3,3.6,4
2015/9/1 8:18,2,3,2,3,3.1,3
2015/9/1 8:19,2,3,2,3,2.4,3
2015/9/1 8:20,2,3,2,3,1.6,4
2015/9/1 8:21,2.1,3,2.1,3,4.3,3
2015/9/1 8:22,2.1,3,2.1,3,3.8,4
2015/9/1 8:23,2.2,3,2.2,3,3.1,4
2015/9/1 8:24,2.1,4,2.1,3,3.1,5
2015/9/1 8:25,2,4,2.1,3,2.5,3
2015/9/1 8:26,2,4,2,3,2.5,3
2015/9/1 8:27,2,4,2,3,3.2,3
2015/9/1 8:28,2,3,2,3,3,3
2015/9/1 8:29,1.9,3,2,3,2.6,3
2015/9/1 8:30,2,3,2,3,2.7,2
2015/9/1 8:31,1.9,3,2.1,3,2.5,3
2015/9/1 8:32,1.9,3,1.9,3,2.6,3
2015/9/1 8:33,1.8,3,1.9,3,2,4
2015/9/1 8:34,1.7,3,1.8,4,2,1
2015/9/1 8:35,1.6,3,1.7,3,1.8,3
2015/9/1 8:36,1.5,3,1.6,3,1.6,3
2015/9/1 8:37,1.4,3,1.5,3,1.9,4
2015/9/1 8:38,1.3,3,1.4,3,1.1,16
2015/9/1 8:39,1.1,3,1.3,3,1.1,1
2015/9/1 8:40,1.2,3,1.2,3,3,2
2015/9/1 8:41,1.2,3,1.2,3,3.9,3
2015/9/1 8:42,1.2,3,1.2,3,3,4
2015/9/1 8:43,1.3,3,1.3,3,4.1,3
2015/9/1 8:44,1.4,3,1.4,3,3,5
2015/9/1 8:45,1.5,3,1.5,3,2.6,3
2015/9/1 8:46,1.5,3,1.5,3,1.8,3
2015/9/1 8:47,1.5,4,1.5,3,1.5,6
2015/9/1 8:48,1.5,4,1.5,3,1.9,5
2015/9/1 8:49,1.6,4,1.6,4,1.9,6
2015/9/1 8:50,1.5,4,1.6,4,1.5,4
2015/9/1 8:51,1.4,4,1.5,4,1,4
2015/9/1 8:52,1.3,5,1.3,4,1.4,6
2015/9/1 8:53,1.2,5,1.3,4,2.7,6
2015/9/1 8:54,1.2,5,1.2,4,2.6,5
2015/9/1 8:55,1.2,5,1.2,4,2.7,5
2015/9/1 8:56,1.3,5,1.3,4,2.9,5
2015/9/1 8:57,1.4,5,1.4,4,2.7,5
2015/9/1 8:58,1.4,5,1.4,4,2.2,4
2015/9/1 8:59,1.4,5,1.4,4,2.4,5
2015/9/1 9:00,1.5,5,1.5,4,2.4,5
2015/9/1 9:01,1.6,5,1.6,5,2.5,6
2015/9/1 9:02,1.7,5,1.7,5,2.2,6
2015/9/1 9:03,1.7,5,1.7,5,2.5,4
2015/9/1 9:04,1.6,5,1.7,5,2.2,3
2015/9/1 9:05,1.6,5,1.7,5,2.5,3
2015/9/1 9:06,1.6,5,1.6,5,2.2,3
2015/9/1 9:07,1.5,5,1.5,5,1.6,6
2015/9/1 9:08,1.5,5,1.5,5,2.4,4
2015/9/1 9:09,1.5,5,1.5,5,2,6
2015/9/1 9:10,1.5,5,1.5,5,2.1,6
2015/9/1 9:11,1.4,5,1.5,5,2,6
2015/9/1 9:12,1.5,5,1.5,5,2.4,6
2015/9/1 9:13,1.5,5,1.5,5,2.7,6
2015/9/1 9:14,1.5,5,1.5,5,2,7
2015/9/1 9:15,1.5,5,1.5,5,1.9,5
2015/9/1 9:16,1.5,6,1.5,5,2.5,6
2015/9/1 9:17,1.5,6,1.5,5,1.9,7
2015/9/1 9:18,1.4,6,1.5,5,1,7
2015/9/1 9:19,1.3,6,1.4,5,1.3,8
2015/9/1 9:20,1.3,6,1.3,5,2,5
2015/9/1 9:21,1.3,6,1.3,5,1.5,6
2015/9/1 9:22,1.2,6,1.3,5,1.3,4
2015/9/1 9:23,1.1,6,1.1,5,1.5,5
2015/9/1 9:24,1,6,1.1,5,1.3,3
2015/9/1 9:25,1,5,1,5,1.9,4
2015/9/1 9:26,1,5,1,6,2.5,5
2015/9/1 9:27,1.1,5,1.1,6,3.2,5
2015/9/1 9:28,1.3,5,1.3,6,3.6,5
2015/9/1 9:29,1.4,5,1.4,5,3.2,4
2015/9/1 9:30,1.5,5,1.5,5,3,3
2015/9/1 9:31,1.7,4,1.7,4,5.2,4
2015/9/1 9:32,2,5,2,5,6.5,4
2015/9/1 9:33,2.2,4,2.2,4,5.2,4
2015/9/1 9:34,2.4,4,2.4,4,4.3,4
2015/9/1 9:35,2.4,4,2.4,4,2.6,3
2015/9/1 9:36,2.5,4,2.5,4,3.3,5
2015/9/1 9:37,2.4,4,2.5,4,3,5
2015/9/1 9:38,2.5,4,2.5,4,3.8,5
2015/9/1 9:39,2.5,4,2.5,4,3.5,5
2015/9/1 9:40,2.5,4,2.6,4,3.2,5
2015/9/1 9:41,2.4,5,2.5,4,2.2,6
2015/9/1 9:42,2.1,5,2.4,4,2,4
2015/9/1 9:43,2.1,5,2.1,4,4.1,3
2015/9/1 9:44,2.1,5,2.1,4,4.5,4
2015/9/1 9:45,2.3,5,2.3,4,4.7,4
2015/9/1 9:46,2.3,5,2.3,4,3.5,5
2015/9/1 9:47,2.3,5,2.3,4,3.2,3
2015/9/1 9:48,2.2,4,2.3,4,2.9,3
2015/9/1 9:49,2.2,4,2.2,4,2.7,2
2015/9/1 9:50,2.1,4,2.2,4,2.1,6
2015/9/1 9:51,2.1,4,2.1,5,2.7,3
2015/9/1 9:52,2.1,4,2.1,5,2.1,4
2015/9/1 9:53,1.9,4,2.1,5,2.1,3
2015/9/1 9:54,1.9,4,2,5,4.4,5
2015/9/1 9:55,1.8,4,1.9,5,4.2,5
2015/9/1 9:56,1.9,4,1.9,5,3.7,4
2015/9/1 9:57,1.9,4,1.9,5,3,4
2015/9/1 9:58,1.9,4,1.9,4,2.6,3
2015/9/1 9:59,1.8,4,1.9,4,3.3,5
2015/9/1 10:00,1.9,4,1.9,4,3,5
2015/9/1 10:01,2,4,2.1,4,4.2,2
2015/9/1 10:02,2.2,4,2.2,4,4.4,5
2015/9/1 10:03,2.5,4,2.5,4,5.4,5
2015/9/1 10:04,2.6,4,2.6,4,4.7,5
2015/9/1 10:05,2.6,4,2.6,4,4.3,5
2015/9/1 10:06,2.5,4,2.6,4,3.2,4
2015/9/1 10:07,2.4,4,2.5,4,2.9,5
2015/9/1 10:08,2.4,4,2.4,4,2.1,5
2015/9/1 10:09,2.4,5,2.4,4,2.7,4
2015/9/1 10:10,2.5,5,2.5,4,4.7,5
2015/9/1 10:11,2.5,5,2.5,4,4.4,6
2015/9/1 10:12,2.6,5,2.6,4,5.1,6
2015/9/1 10:13,2.5,5,2.6,4,4.8,5
2015/9/1 10:14,2.4,5,2.5,4,3.3,5
2015/9/1 10:15,2.3,5,2.4,4,4.9,4
2015/9/1 10:16,2.4,5,2.4,5,4.8,5
2015/9/1 10:17,2.5,5,2.5,5,4.2,4
2015/9/1 10:18,2.6,5,2.6,5,4.2,3
2015/9/1 10:19,2.7,5,2.7,5,5.1,4
2015/9/1 10:20,2.8,5,2.8,5,5.1,5
2015/9/1 10:21,2.7,5,2.8,5,3.8,4
2015/9/1 10:22,2.6,5,2.8,5,3.2,5
2015/9/1 10:23,2.5,5,2.6,5,5.5,5
2015/9/1 10:24,2.7,5,2.7,5,5.8,5
2015/9/1 10:25,2.8,5,2.8,5,4.8,6
2015/9/1 10:26,3,5,3,5,6.7,6
2015/9/1 10:27,3.1,5,3.1,5,4.3,4
2015/9/1 10:28,3.1,5,3.1,5,4.8,5
2015/9/1 10:29,3.1,5,3.2,5,5.2,5
2015/9/1 10:30,3,5,3.1,5,3.9,5
2015/9/1 10:31,3.2,5,3.2,5,6.3,4
2015/9/1 10:32,3.4,5,3.4,5,5.8,5
2015/9/1 10:33,3.7,5,3.7,5,8.1,4
2015/9/1 10:34,3.8,5,3.8,5,6.1,5
2015/9/1 10:35,3.8,5,3.8,5,5.2,6
2015/9/1 10:36,3.6,5,3.8,5,4.9,5
2015/9/1 10:37,3.7,5,3.7,5,6.3,5
2015/9/1 10:38,3.7,5,3.8,5,4.7,5
2015/9/1 10:39,3.6,5,3.7,5,4.5,6
2015/9/1 10:40,3.6,5,3.6,5,3.3,4
2015/9/1 10:41,3.5,5,3.6,5,5.5,5
2015/9/1 10:42,3.4,5,3.5,5,3.9,6
2015/9/1 10:43,3.1,5,3.3,5,3.1,4
2015/9/1 10:44,2.9,5,3,5,3.7,4
2015/9/1 10:45,2.8,5,2.8,5,3.3,4
2015/9/1 10:46,2.8,5,2.8,5,3.8,3
2015/9/1 10:47,2.6,5,2.7,5,3.7,5
2015/9/1 10:48,2.5,5,2.6,5,3.1,5
2015/9/1 10:49,2.5,5,2.5,5,3.6,6
2015/9/1 10:50,2.5,5,2.5,5,3.1,6
2015/9/1 10:51,2.3,5,2.5,5,3.5,6
2015/9/1 10:52,2.3,5,2.3,5,2.9,5
2015/9/1 10:53,2.2,5,2.3,5,2.7,6
2015/9/1 10:54,2.2,5,2.2,5,4.4,5
2015/9/1 10:55,2.3,5,2.3,5,3.9,4
2015/9/1 10:56,2.3,5,2.3,5,4.4,5
2015/9/1 10:57,2.4,5,2.4,5,4.9,6
2015/9/1 10:58,2.5,6,2.5,5,5.2,6
2015/9/1 10:59,2.6,6,2.6,6,3.8,5
2015/9/1 11:00,2.7,6,2.7,6,4.1,6
2015/9/1 11:01,2.8,6,2.8,6,4.4,5
2015/9/1 11:02,2.9,6,2.9,6,3.9,6
2015/9/1 11:03,3,6,3,6,3.7,5
2015/9/1 11:04,3,6,3.1,6,4.4,5
2015/9/1 11:05,3.1,6,3.1,6,4.1,6
2015/9/1 11:06,3,6,3.1,6,4.7,6
2015/9/1 11:07,3.1,6,3.1,6,5.8,6
2015/9/1 11:08,3,6,3.1,6,3.7,6
2015/9/1 11:09,2.9,6,2.9,6,3.9,4
2015/9/1 11:10,2.9,6,2.9,6,6,4
2015/9/1 11:11,2.8,6,2.9,6,5.1,5
2015/9/1 11:12,3,6,3,6,6.2,5
2015/9/1 11:13,3.2,5,3.2,5,6.3,5
2015/9/1 11:14,3.2,5,3.2,5,5.7,5
2015/9/1 11:15,3.2,5,3.3,5,4.7,5
2015/9/1 11:16,3.3,5,3.3,5,4.3,4
2015/9/1 11:17,3.2,5,3.3,5,4.4,5
2015/9/1 11:18,3.2,5,3.2,5,4.4,5
2015/9/1 11:19,3.3,5,3.3,5,3.7,6
2015/9/1 11:20,3.1,5,3.3,5,3.5,6
2015/9/1 11:21,3,5,3.1,5,2.5,5
2015/9/1 11:22,2.8,5,3,5,3.8,3
2015/9/1 11:23,2.7,5,2.8,5,3.7,3
2015/9/1 11:24,2.5,5,2.7,5,3,6
2015/9/1 11:25,2.4,5,2.5,5,3.6,5
2015/9/1 11:26,2.5,5,2.5,5,5.4,5
2015/9/1 11:27,2.4,5,2.5,5,3.7,6
2015/9/1 11:28,2.3,5,2.4,5,2.5,5
2015/9/1 11:29,2.2,5,2.3,5,2.6,5
2015/9/1 11:30,2.2,5,2.2,5,2.2,4
2015/9/1 11:31,2.2,5,2.2,5,2.7,6
2015/9/1 11:32,2.2,5,2.2,5,4.2,6
2015/9/1 11:33,2.1,5,2.2,5,2,5
2015/9/1 11:34,2,6,2,5,3.1,3
2015/9/1 11:35,2,6,2,5,3.2,5
2015/9/1 11:36,1.8,5,2,5,3.3,6
2015/9/1 11:37,1.7,5,1.8,5,2.7,5
2015/9/1 11:38,1.8,5,1.8,5,2.5,5
2015/9/1 11:39,1.8,5,1.8,5,3.6,5
2015/9/1 11:40,1.9,5,1.9,5,3.2,5
2015/9/1 11:41,1.9,5,1.9,5,2.6,5
2015/9/1 11:42,1.9,5,1.9,5,3,3
2015/9/1 11:43,2,5,2,5,3.5,3
2015/9/1 11:44,2,4,2,6,2.2,3
2015/9/1 11:45,2,4,2,6,2.5,5
2015/9/1 11:46,1.9,4,2,5,2.6,4
2015/9/1 11:47,1.9,4,1.9,5,1.9,4
2015/9/1 11:48,2,4,2,5,4.1,3
2015/9/1 11:49,2,4,2,5,3.9,5
2015/9/1 11:50,2.1,4,2.1,4,3.7,6
2015/9/1 11:51,2.1,5,2.1,4,3.5,6
2015/9/1 11:52,2.1,5,2.1,4,2.5,6
2015/9/1 11:53,2.2,5,2.2,5,5.5,5
2015/9/1 11:54,2.3,5,2.3,5,4.3,6
2015/9/1 11:55,2.4,5,2.4,5,4.2,6
2015/9/1 11:56,2.5,6,2.5,5,3.1,6
2015/9/1 11:57,2.6,6,2.6,5,3.2,6
2015/9/1 11:58,2.5,6,2.6,5,2.2,6
2015/9/1 11:59,2.5,6,2.5,5,5.1,7
2015/9/1 12:00,2.4,6,2.5,5,3.5,6
2015/9/1 12:01,2.5,6,2.5,5,3.8,7